星链-34861(STARLINK-34861)

导读

STARLINK-35829是美国太空探索技术公司(SpaceX)星链(Starlink)卫星互联网项目的一颗卫星,于2025年11月6日由美国发射升空,属于星链项目中低轨卫星星座的组成部分,主要用于提供全球覆盖的高速卫星互联网服务,尤其服务地面基础设施覆盖不足的偏远地区。

基本信息
目录编号:
66350
目录名称:
STARLINK-35829
国际标识:
2025-254C
轨道中心:
EARTH
卫星名称:
星链-34861
卫星全名:
星链-34861(STARLINK-34861)
卫星状态:
在轨 (已飞行310 天)
发射日期:
2025-11-06 UTC
国别 :
美国 (US)
星等 :
--
该卫星已列入 空间交会检测服务 Space Conjunction Data Service (SCDS) ,当前飞行风险评估等级: 无高风险
轨道信息
数据来源 国际轨道数据
星历时间: 2026-09-12T02:36:28+0800
13小时前
查看轨道信息
半长轴: 6848.866km
偏心率: 0.0002066
轨道倾角: 53.159°
近地点辐角 47.095°
升交点赤经 86.870°
平近点角 313.022°
近地点: 469.314km
远地点: 472.144km
周期: 94.013分钟
每日圈数: 15.317039
详细信息
固有亮度:
5
最大亮度:
2.5
卫星平台:
Starlink V1.0
覆盖范围:
全球
运营商:
太空探索技术公司
运营商所在国:
美国
制造商(研发单位):
太空探索技术公司
制造商所在国:
美国
使用方式:
暂无
卫星简介
Starlink 计划是 SpaceX 推出的全球卫星互联网项目,通过发射低轨道卫星,为全球尤其是偏远地区提供高速、低延迟的互联网服务。自 2019 年起,Starlink 已部署数千颗卫星,旨在缩小全球数字鸿沟,推动互联网普及。该项目还为军事、航空等行业提供通信支持,带来广泛经济效益。
2D轨道图
3D轨道图
轨道高度分析图
轨道倾角分析图
轨道综合分析图
查看轨道综合分析图
交会数据列表
事件ID 空间交会对象 最接近时刻(TCA) 交会距离 交会风险概率(CRP) 交会风险指数(CRI) 操作
CDM_260913-074906-635006-789421
2026-09-13T
07:49:20+0000
2.152 km
极远距离
2.146614E-6 低风险 0.42
CDM_260912-181206-635006-816521
2026-09-12T
18:12:38+0000
2.434 km
极远距离
1.835957E-6 低风险 0.4
CDM_260906-161306-635006-798421
2026-09-06T
16:13:42+0000
2.649 km
极远距离
1.556906E-6 低风险 0.39
CDM_260913-065506-635006-773722
2026-09-13T
06:55:20+0000
2.683 km
极远距离
1.489267E-6 低风险 0.38
CDM_260914-171306-635006-884121
2026-09-14T
17:13:13+0000
2.863 km
极远距离
1.410253E-6 低风险 0.38
CDM_260912-141906-635006-903621
2026-09-12T
14:19:55+0000
2.987 km
极远距离
8.480791E-7 极低风险 0.34
与全量物体交会距离演化趋势
与全量物体交会风险概率演化趋势